This is the latest recevied weather packets stored in our database for station/object OE5MMP-13. If no packets are shown the sender has not sent any weather packets the latest 10 day(s).
| Time | Temp. | Humidity | Pressure | Rain* | Wind** | Luminosity | Snow |
|---|---|---|---|---|---|---|---|
| 1788633795 | 17.78° C | 71% | 1023.1 hPa | 0 mm | - | 0 W/m² | - |
| 1788633195 | 17.78° C | 71% | 1023 hPa | 0 mm | - | 0 W/m² | - |
| 1788632595 | 17.78° C | 70% | 1022.8 hPa | 0 mm | - | 0 W/m² | - |
| 1788631995 | 18.33° C | 69% | 1022.8 hPa | 0 mm | - | 0 W/m² | - |
| 1788631395 | 18.33° C | 68% | 1022.7 hPa | 0 mm | - | 0 W/m² | - |
| 1788630795 | 18.33° C | 67% | 1022.8 hPa | 0 mm | - | 0 W/m² | - |
| 1788630195 | 18.33° C | 66% | 1022.8 hPa | 0 mm | - | 0 W/m² | - |
| 1788629595 | 18.89° C | 65% | 1022.8 hPa | 0 mm | - | 7 W/m² | - |
| 1788628995 | 18.89° C | 65% | 1022.6 hPa | 0 mm | - | 12 W/m² | - |
| 1788628395 | 19.44° C | 65% | 1022.6 hPa | 0 mm | - | 14 W/m² | - |
| 1788627803 | 19.44° C | 64% | 1022.6 hPa | 0 mm | - | 27 W/m² | - |
| 1788627195 | 20° C | 63% | 1022.8 hPa | 0 mm | - | 46 W/m² | - |
| 1788626595 | 20° C | 61% | 1022.6 hPa | 0 mm | - | 70 W/m² | - |
| 1788625995 | 20° C | 61% | 1022.7 hPa | 0 mm | - | 98 W/m² | - |
| 1788625394 | 20.56° C | 60% | 1022.7 hPa | 0 mm | - | 130 W/m² | - |
| 1788624795 | 20.56° C | 60% | 1022.9 hPa | 0 mm | - | 164 W/m² | - |
| 1788624222 | 20.56° C | 60% | 1022.8 hPa | 0 mm | - | 180 W/m² | - |
| 1788623595 | 20.56° C | 61% | 1022.8 hPa | 0 mm | - | 224 W/m² | - |
| 1788622995 | 20.56° C | 61% | 1022.7 hPa | 0 mm | - | 252 W/m² | - |
| 1788622394 | 20.56° C | 63% | 1023 hPa | 0 mm | - | 279 W/m² | - |
| 1788621794 | 20.56° C | 64% | 1023.1 hPa | 0 mm | - | 307 W/m² | - |
| 1788621194 | 20.56° C | 64% | 1023.1 hPa | 0 mm | - | 333 W/m² | - |
| 1788620594 | 20.56° C | 65% | 1023 hPa | 0 mm | - | 360 W/m² | - |
| 1788619994 | 20° C | 66% | 1022.9 hPa | 0 mm | - | 387 W/m² | - |
| 1788619394 | 20° C | 65% | 1023 hPa | 0 mm | - | 409 W/m² | - |
* Rain latest hour (hover to see other rain measurements)
** Current wind speed in m/s (hover to see current wind gust speed)